This is the latest recevied weather packets stored in our database for station/object F5IOR. If no packets are shown the sender has not sent any weather packets the latest 10 day(s).
| Time | Temp. | Humidity | Pressure | Rain* | Wind** | Luminosity | Snow |
|---|---|---|---|---|---|---|---|
| 1787411178 | 25° C | 29% | 990.9 hPa | 0 mm | - | - | - |
| 1787409378 | 25° C | 29% | 991 hPa | 0 mm | - | - | - |
| 1787407578 | 24.44° C | 30% | 991.1 hPa | 0 mm | - | - | - |
| 1787405778 | 24.44° C | 30% | 991.1 hPa | 0 mm | - | - | - |
| 1787403978 | 23.89° C | 33% | 991.5 hPa | 0 mm | - | - | - |
| 1787402178 | 23.89° C | 33% | 991.5 hPa | 0 mm | - | - | - |
| 1787400378 | 23.33° C | 35% | 991.7 hPa | 0 mm | - | - | - |
| 1787398578 | 22.78° C | 36% | 991.8 hPa | 0 mm | - | - | - |
| 1787396778 | 22.22° C | 40% | 991.8 hPa | 0 mm | - | - | - |
| 1787394978 | 21.67° C | 41% | 991.8 hPa | 0 mm | - | - | - |
| 1787393178 | 21.11° C | 45% | 992.2 hPa | 0 mm | - | - | - |
| 1787391378 | 20.56° C | 47% | 992.2 hPa | 0 mm | - | - | - |
| 1787390418 | 19.44° C | 51% | 992.2 hPa | 0 mm | - | - | - |
| 1787389458 | 18.89° C | 53% | 992.2 hPa | 0 mm | - | - | - |
| 1787388498 | 18.33° C | 55% | 992.1 hPa | 0 mm | - | - | - |
| 1787387538 | 17.22° C | 58% | 991.9 hPa | 0 mm | - | - | - |
| 1787387058 | 17.22° C | 58% | 991.9 hPa | 0 mm | - | - | - |
| 1787386578 | 17.22° C | 58% | 991.9 hPa | 0 mm | - | - | - |
| 1787386098 | 16.11° C | 59% | 991.8 hPa | 0 mm | - | - | - |
| 1787385618 | 16.11° C | 59% | 991.8 hPa | 0 mm | - | - | - |
| 1787385378 | 15.56° C | 61% | 991.8 hPa | 0 mm | - | - | - |
| 1787385138 | 15.56° C | 61% | 991.8 hPa | 0 mm | - | - | - |
| 1787384898 | 15.56° C | 61% | 991.8 hPa | 0 mm | - | - | - |
| 1787384658 | 15.56° C | 61% | 991.8 hPa | 0 mm | - | - | - |
| 1787384538 | 15.56° C | 61% | 991.8 hPa | 0 mm | - | - | - |
* Rain latest hour (hover to see other rain measurements)
** Current wind speed in m/s (hover to see current wind gust speed)